OBJECT V, 57185

Orbit data source: Space-Track

You're viewing an Uncataloged Satellite

Recently launched and/or uncataloged satellites may have evolving metadata. Metadata may include but not limited to: Owner, Maufacturer, Bus, Motor, and Mission.

OBJECT V, 57185 is a satellite in SSO that was launched on Tue, 27 Jun 2023 UTC via a SOYUZ-2-1B launch vehicle from the Vostochny Cosmodrome (VOSTO). Unknown objects in Earth's orbit typically refer to objects detected orbiting the Earth but have not yet been identified or cataloged. These objects could be anything from previously untracked satellites, spent rocket stages, debris from satellite collisions, or even natural meteoroids temporarily captured by Earth's gravity.

Loading next visibility...
Identifier
57185, 2023-091V
Orbit
SSO
Country
Flag of TBDTBD
Related business
None
Manufacturer
Unknown
Mission
Operational Commercial Technology
Bus & Motor
Unknown
Mass
Unknown
Launch date (UTC)
2023-06-27 (3 years ago)
Launch vehicle
SOYUZ-2-1B
Launch site
Vostochny Cosmodrome (VOSTO)
Object type
Unknown
Shape & HBR
Box, 0.1 m
Radar Cross Section
0.035 m², Medium (>0.1 m² and < 1m²)

Expand to show TLE details & history
Last TLE update: 10 hours ago

TLE from 10 hours ago
0 OBJECT V
1 57185U 23091V   26162.71129249  .00019549  00000-0  50331-3 0  9996
2 57185  97.5069 233.2797 0007897  98.0875 262.1266 15.39241348163932
Epoch: 2026-06-11T17:04Z
TLE epoch observation values (Epoch: 2026-06-11T17:04:15.671Z)
Latitude
-0.00005°
Longitude
77.16324°
Altitude
452.208 km
Speed
7.641 km/s
True Right ascension
15h 33m 07s
True Declination
0° 00' 00"
Sunlit
Object was in full shadow at epoch
Visualization orbit readout
Latitude
Unknown
Longitude
Unknown
Altitude
Unknown
Speed
Unknown
Apparent Right ascension
Unknown
Apparent Declination
Unknown
Sunlit
N/A
Visualization observer readout
Local Sidereal Time
12:56:19
Azimuth
Unknown
Elevation
Unknown
Doppler factor
Unknown
Orbital elements
Apogee altitude
450.685 km
Perigee altitude
439.908 km
Semi-major axis
6,823.433 km
Eccentricity
0.00079
Inclination
97.5069°
RAAN
233.2797°
Arg. of periapsis
98.0875°
True anomaly
262.03697°
Mean anomaly
262.1266°
Eccentric anomaly
262.08178°
Mean motion
3.85069 °/min
Orbital period
93.49 mins
BSTAR
0.00050331
Loading maneuver chart data...
Computing Atmospheric mass density...
Loading historical data...
Loading historical data...
Loading historical data...
Loading historical data...
Loading historical data...
Loading historical data...
Loading historical data...

Documentation

Showing up to 5 results
|